Location: Newark
(48.5667°N, 7.8167°E)
Time: 00:32:50
(UTC+00:00)

CZ-6 R/B - Pass Details

Date: 29 November 2021
Orbit: 384 x 499 km, 97.7° (Epoch: 22 January)

Event Time Altitude Azimuth Distance (km) Brightness Sun altitude
Exits shadow 17:12:04 - 2° (N) 2,344 ? -15.2°
Reaches altitude 10° 17:14:13 10° 348° (NNW) 1,501 ? -15.5°
Maximum altitude 17:16:50 24° 293° (WNW) 903 ? -16.0°
Drops below altitude 10° 17:19:22 10° 237° (WSW) 1,448 ? -16.4°
Sets 17:21:32 0° 223° (SW) 2,286 ? -16.7°
